EZY43WR EGKK-LEMD

Flight info

Callsign EZY43WR
Flight time N/A
Altitude 31000
Route NOVMA DCT HAZEL L620 SAM M195 MARUK N621 LELNA/N0441F330 DCT NOVAN DCT DELOG N864 NONTU
Aircraft A21N/M-SDE2E3FGHIJ1RWXYZ/LB1G1

Departure

Time 2026-04-15 10:01
Airport London Gatwick Airport (EGKK)

Arrival

Time N/A
Airport Adolfo Suárez Madrid–Barajas Airport (LEMD)
Time Latitude Longitude Altitude Speed Heading
2026-04-15 10:01 51.05563 -0.61807 12896 ft 280 kts 236°
2026-04-15 10:01 51.04445 -0.64430 13234 ft 299 kts 232°
2026-04-15 10:02 51.03195 -0.67208 13746 ft 311 kts 232°
2026-04-15 10:02 51.01940 -0.70012 14526 ft 311 kts 232°
2026-04-15 10:02 51.00697 -0.72805 15385 ft 309 kts 232°
2026-04-15 10:02 50.99448 -0.75610 16131 ft 312 kts 232°
2026-04-15 10:03 50.98191 -0.78431 16839 ft 315 kts 232°
2026-04-15 10:03 50.96923 -0.81280 17535 ft 318 kts 232°
2026-04-15 10:03 50.95645 -0.84157 18210 ft 321 kts 232°
2026-04-15 10:03 50.94353 -0.87062 18822 ft 324 kts 232°
2026-04-15 10:04 50.93048 -0.89992 19415 ft 327 kts 232°
2026-04-15 10:04 50.91730 -0.92947 20000 ft 330 kts 232°
2026-04-15 10:04 50.90400 -0.95924 20632 ft 331 kts 232°
2026-04-15 10:04 50.89065 -0.98908 21252 ft 333 kts 231°
2026-04-15 10:05 50.87724 -1.01904 21837 ft 335 kts 231°
2026-04-15 10:05 50.86370 -1.04926 22390 ft 338 kts 231°
2026-04-15 10:05 50.85005 -1.07969 22969 ft 340 kts 231°
2026-04-15 10:05 50.83626 -1.11036 23531 ft 343 kts 231°
2026-04-15 10:06 50.82239 -1.14119 23996 ft 346 kts 231°
2026-04-15 10:06 50.80839 -1.17226 24462 ft 348 kts 231°
2026-04-15 10:06 50.79433 -1.20347 24942 ft 349 kts 231°
2026-04-15 10:06 50.78019 -1.23477 25403 ft 351 kts 231°
2026-04-15 10:07 50.76571 -1.26656 25871 ft 352 kts 231°
2026-04-15 10:07 50.75140 -1.29808 26328 ft 354 kts 231°
2026-04-15 10:07 50.73699 -1.32977 26764 ft 356 kts 231°
2026-04-15 10:07 50.72259 -1.36152 27189 ft 357 kts 231°
2026-04-15 10:08 50.70812 -1.39349 27607 ft 359 kts 231°
2026-04-15 10:08 50.69358 -1.42558 28055 ft 360 kts 231°
2026-04-15 10:08 50.67891 -1.45780 28450 ft 362 kts 230°
2026-04-15 10:08 50.66418 -1.49004 28833 ft 364 kts 231°
2026-04-15 10:09 50.64942 -1.52246 29206 ft 365 kts 231°
2026-04-15 10:09 50.63455 -1.55509 29557 ft 367 kts 231°
2026-04-15 10:09 50.61964 -1.58779 29929 ft 368 kts 231°
2026-04-15 10:09 50.60466 -1.62056 30261 ft 370 kts 231°
2026-04-15 10:10 50.58951 -1.65349 30553 ft 372 kts 230°
2026-04-15 10:10 50.57436 -1.68647 30886 ft 372 kts 231°
2026-04-15 10:10 50.55921 -1.71948 31061 ft 374 kts 231°
2026-04-15 10:11 50.52673 -1.78427 31082 ft 377 kts 221°
2026-04-15 10:11 50.48442 -1.83201 31071 ft 375 kts 212°
2026-04-15 10:12 50.44746 -1.86895 31087 ft 377 kts 212°
2026-04-15 10:12 50.40317 -1.91369 31052 ft 379 kts 212°
2026-04-15 10:13 50.35902 -1.95848 31060 ft 378 kts 212°
2026-04-15 10:13 50.31479 -2.00323 31061 ft 378 kts 212°
2026-04-15 10:14 50.27048 -2.04761 31059 ft 378 kts 210°
2026-04-15 10:14 50.22162 -2.07588 31059 ft 382 kts 192°
2026-04-15 10:15 50.16849 -2.08326 31045 ft 383 kts 188°
2026-04-15 10:15 50.11532 -2.08946 31063 ft 383 kts 188°
2026-04-15 10:16 50.06211 -2.09625 31475 ft 384 kts 188°
2026-04-15 10:16 50.03556 -2.09966 31835 ft 383 kts 188°
2026-04-15 10:16 50.00855 -2.10314 32166 ft 384 kts 188°
2026-04-15 10:16 49.98237 -2.10775 32474 ft 382 kts 193°
2026-04-15 10:17 49.95651 -2.11797 32767 ft 380 kts 199°
2026-04-15 10:17 49.93121 -2.13009 33044 ft 380 kts 199°
2026-04-15 10:17 49.90623 -2.14212 33351 ft 380 kts 199°
2026-04-15 10:17 49.88063 -2.15422 33651 ft 380 kts 199°
2026-04-15 10:18 49.85531 -2.16608 33933 ft 380 kts 199°
2026-04-15 10:18 49.82995 -2.17790 34180 ft 380 kts 199°
2026-04-15 10:18 49.80463 -2.18968 34371 ft 381 kts 199°
2026-04-15 10:18 49.77914 -2.20150 34554 ft 382 kts 199°
2026-04-15 10:19 49.75363 -2.21332 34735 ft 383 kts 199°
2026-04-15 10:19 49.72808 -2.22516 34910 ft 384 kts 199°
2026-04-15 10:19 49.70247 -2.23708 35047 ft 385 kts 199°
2026-04-15 10:20 49.65095 -2.26097 35138 ft 387 kts 199°
2026-04-15 10:20 49.59976 -2.28461 35096 ft 386 kts 199°
2026-04-15 10:21 49.54796 -2.30845 35087 ft 386 kts 199°
2026-04-15 10:21 49.49641 -2.33216 35059 ft 386 kts 199°
2026-04-15 10:22 49.44484 -2.35584 35076 ft 386 kts 199°
2026-04-15 10:22 49.39333 -2.37944 35085 ft 387 kts 199°
2026-04-15 10:23 49.34181 -2.40297 35084 ft 386 kts 199°
2026-04-15 10:23 49.29030 -2.42644 35085 ft 386 kts 199°
2026-04-15 10:24 49.23880 -2.44991 35081 ft 386 kts 199°
2026-04-15 10:24 49.18744 -2.47324 35108 ft 386 kts 199°
2026-04-15 10:25 49.13596 -2.49654 35106 ft 386 kts 199°
2026-04-15 10:25 49.08457 -2.51976 35101 ft 386 kts 199°
2026-04-15 10:26 49.03313 -2.54294 35074 ft 383 kts 200°